Terug naar catalogus

THORAD AGENA D DEB

ActiefLEO
NORAD 19150·DEBRIS·🇺🇸 United States

Gelanceerd Apr 8, 1970 vanaf Vandenberg Space Force Base

Loading…

Volgende Passages (komende 24 uur)

TLE

VerouderendSource: Space-Track

Epoch: Sep 12, 2026, 15:09 UTC

1 19150U 70025PS  26255.63154568  .00006734  00000-0  27815-2 0  9993
2 19150 100.3287 220.4986 0020256 283.5367  76.3551 14.27022666917874

Volg THORAD AGENA D DEB in realtime met AllMySat

Download on the App Store